Precipitable_Water
0.81 0.84 0.84 0.84 0.84 0.81 0.78 0.70 0.66 0.58 0.56 0.54 0.54 0.52 0.51 0.50 0.51 0.51 0.52 0.53 0.50 0.47 0.46 0.44 0.43 0.44 0.44 0.47 0.48 0.49 0.48 0.49 0.42 0.42 0.45 0.44 0.43 0.42 0.44 0.44 0.42 0.38 0.33
0.75 0.75 0.71 0.69 0.63 0.56 0.52 0.51 0.52 0.50 0.52 0.52 0.50 0.51 0.51 0.52 0.52 0.52 0.51 0.53 0.51 0.49 0.47 0.46 0.41 0.41 0.40 0.43 0.44 0.42 0.41 0.43 0.43 0.38 0.40 0.39 0.40 0.42 0.42 0.38 0.36 0.35 0.33
0.61 0.55 0.47 0.42 0.40 0.39 0.40 0.41 0.42 0.43 0.43 0.44 0.45 0.45 0.47 0.48 0.50 0.52 0.51 0.52 0.53 0.53 0.52 0.51 0.48 0.44 0.38 0.37 0.40 0.39 0.40 0.39 0.37 0.38 0.37 0.40 0.38 0.39 0.36 0.37 0.35 0.34 0.34
0.35 0.34 0.33 0.30 0.27 0.24 0.23 0.22 0.22 0.22 0.22 0.23 0.26 0.29 0.31 0.32 0.34 0.41 0.47 0.49 0.52 0.55 0.54 0.54 0.54 0.51 0.46 0.41 0.38 0.38 0.39 0.36 0.35 0.33 0.33 0.35 0.36 0.36 0.35 0.31 0.28 0.33 0.31
0.24 0.20 0.17 0.17 0.17 0.17 0.17 0.18 0.19 0.19 0.21 0.22 0.22 0.22 0.23 0.25 0.26 0.28 0.27 0.30 0.33 0.33 0.46 0.54 0.57 0.58 0.54 0.48 0.43 0.39 0.39 0.36 0.32 0.30 0.28 0.30 0.31 0.31 0.30 0.32 0.30 0.30 0.29
0.16 0.16 0.16 0.16 0.16 0.17 0.18 0.18 0.18 0.19 0.20 0.20 0.21 0.21 0.22 0.23 0.23 0.24 0.28 0.26 0.23 0.23 0.26 0.33 0.49 0.52 0.55 0.52 0.49 0.45 0.43 0.38 0.33 0.29 0.28 0.26 0.27 0.31 0.33 0.32 0.30 0.26 0.21
0.16 0.17 0.16 0.17 0.16 0.17 0.18 0.18 0.19 0.19 0.19 0.21 0.20 0.20 0.20 0.22 0.23 0.26 0.26 0.26 0.24 0.23 0.23 0.24 0.24 0.34 0.46 0.52 0.50 0.45 0.45 0.43 0.40 0.34 0.27 0.27 0.27 0.30 0.32 0.31 0.30 0.28 0.24
0.17 0.16 0.16 0.16 0.16 0.17 0.17 0.17 0.17 0.17 0.19 0.18 0.19 0.20 0.21 0.22 0.23 0.23 0.23 0.24 0.25 0.26 0.28 0.27 0.26 0.27 0.31 0.41 0.47 0.44 0.41 0.42 0.43 0.40 0.34 0.33 0.34 0.35 0.35 0.34 0.32 0.30 0.29
0.16 0.15 0.15 0.15 0.15 0.15 0.15 0.15 0.16 0.17 0.17 0.18 0.19 0.19 0.20 0.19 0.21 0.22 0.23 0.25 0.24 0.24 0.24 0.24 0.23 0.30 0.29 0.32 0.43 0.42 0.40 0.41 0.47 0.44 0.38 0.37 0.38 0.37 0.37 0.35 0.29 0.27 0.22
0.15 0.15 0.15 0.16 0.15 0.15 0.15 0.16 0.16 0.16 0.19 0.19 0.19 0.20 0.21 0.19 0.21 0.21 0.21 0.21 0.21 0.21 0.22 0.20 0.19 0.23 0.30 0.30 0.38 0.38 0.38 0.40 0.43 0.39 0.35 0.35 0.37 0.38 0.38 0.37 0.34 0.27 0.26
0.15 0.15 0.15 0.15 0.15 0.15 0.16 0.16 0.16 0.17 0.17 0.18 0.19 0.19 0.20 0.21 0.19 0.19 0.19 0.19 0.21 0.23 0.20 0.18 0.19 0.24 0.30 0.31 0.38 0.40 0.40 0.43 0.42 0.38 0.34 0.33 0.34 0.34 0.36 0.38 0.39 0.34 0.28
0.14 0.14 0.14 0.15 0.15 0.15 0.15 0.16 0.16 0.18 0.17 0.17 0.17 0.17 0.17 0.17 0.19 0.18 0.19 0.20 0.21 0.20 0.19 0.18 0.23 0.28 0.34 0.34 0.39 0.42 0.42 0.42 0.40 0.36 0.32 0.30 0.31 0.32 0.34 0.36 0.38 0.36 0.35
0.14 0.13 0.13 0.14 0.15 0.15 0.16 0.16 0.17 0.18 0.17 0.17 0.17 0.15 0.15 0.16 0.17 0.18 0.18 0.17 0.18 0.19 0.19 0.23 0.29 0.31 0.34 0.38 0.40 0.40 0.40 0.39 0.36 0.33 0.30 0.30 0.33 0.34 0.34 0.33 0.36 0.38 0.36
0.13 0.13 0.13 0.14 0.14 0.16 0.17 0.18 0.17 0.17 0.18 0.17 0.16 0.15 0.15 0.15 0.16 0.18 0.17 0.19 0.18 0.17 0.23 0.29 0.32 0.36 0.38 0.39 0.38 0.38 0.39 0.38 0.35 0.33 0.31 0.33 0.34 0.32 0.31 0.32 0.30 0.32 0.31
0.13 0.12 0.13 0.14 0.15 0.17 0.18 0.18 0.18 0.20 0.20 0.19 0.17 0.16 0.15 0.14 0.16 0.19 0.19 0.18 0.17 0.24 0.28 0.30 0.33 0.33 0.33 0.34 0.35 0.36 0.37 0.38 0.35 0.34 0.32 0.31 0.31 0.30 0.29 0.30 0.30 0.30 0.27
0.12 0.12 0.14 0.14 0.17 0.17 0.17 0.16 0.19 0.20 0.20 0.20 0.17 0.16 0.15 0.16 0.16 0.17 0.17 0.18 0.24 0.28 0.29 0.31 0.31 0.32 0.31 0.32 0.32 0.33 0.35 0.36 0.35 0.34 0.33 0.32 0.30 0.29 0.29 0.30 0.30 0.28 0.26
0.12 0.13 0.14 0.15 0.16 0.17 0.17 0.17 0.16 0.17 0.19 0.19 0.16 0.15 0.15 0.15 0.16 0.16 0.16 0.20 0.26 0.27 0.29 0.29 0.29 0.30 0.32 0.32 0.33 0.33 0.33 0.36 0.36 0.35 0.34 0.32 0.31 0.31 0.30 0.29 0.29 0.29 0.27
0.13 0.14 0.14 0.14 0.16 0.18 0.18 0.18 0.18 0.17 0.16 0.15 0.15 0.14 0.14 0.14 0.14 0.15 0.17 0.20 0.22 0.24 0.26 0.27 0.29 0.31 0.32 0.32 0.33 0.32 0.33 0.34 0.34 0.34 0.34 0.34 0.33 0.32 0.30 0.30 0.30 0.29 0.28
0.13 0.14 0.13 0.14 0.17 0.18 0.18 0.18 0.18 0.18 0.17 0.17 0.15 0.13 0.14 0.14 0.13 0.14 0.17 0.18 0.20 0.22 0.24 0.25 0.27 0.29 0.30 0.31 0.31 0.32 0.32 0.33 0.31 0.34 0.35 0.36 0.36 0.34 0.31 0.31 0.30 0.30 0.30
0.13 0.13 0.12 0.14 0.16 0.17 0.18 0.18 0.18 0.17 0.18 0.17 0.16 0.14 0.13 0.13 0.11 0.12 0.15 0.16 0.19 0.21 0.23 0.24 0.26 0.28 0.29 0.30 0.30 0.30 0.29 0.29 0.30 0.29 0.27 0.28 0.30 0.33 0.32 0.31 0.30 0.28 0.29
0.12 0.12 0.13 0.14 0.15 0.17 0.18 0.18 0.18 0.18 0.18 0.18 0.17 0.16 0.14 0.12 0.12 0.13 0.14 0.14 0.17 0.20 0.22 0.24 0.24 0.26 0.27 0.29 0.29 0.30 0.30 0.29 0.29 0.26 0.25 0.25 0.25 0.26 0.27 0.31 0.31 0.31 0.30
0.11 0.12 0.14 0.13 0.14 0.16 0.17 0.19 0.19 0.18 0.18 0.18 0.18 0.18 0.15 0.13 0.13 0.13 0.12 0.13 0.15 0.18 0.21 0.23 0.24 0.25 0.26 0.27 0.27 0.28 0.28 0.29 0.30 0.27 0.24 0.22 0.22 0.22 0.22 0.24 0.28 0.30 0.30
0.11 0.14 0.14 0.13 0.13 0.14 0.17 0.18 0.18 0.18 0.18 0.18 0.18 0.18 0.17 0.15 0.13 0.13 0.12 0.13 0.14 0.15 0.18 0.21 0.22 0.23 0.25 0.26 0.27 0.27 0.28 0.29 0.29 0.29 0.25 0.22 0.20 0.19 0.19 0.21 0.23 0.27 0.29
0.13 0.15 0.14 0.12 0.12 0.13 0.14 0.16 0.18 0.18 0.18 0.18 0.19 0.18 0.18 0.17 0.15 0.13 0.13 0.13 0.13 0.15 0.15 0.17 0.19 0.20 0.23 0.25 0.26 0.26 0.28 0.29 0.28 0.27 0.25 0.24 0.22 0.19 0.19 0.19 0.20 0.23 0.27
0.15 0.15 0.13 0.13 0.12 0.12 0.11 0.13 0.16 0.18 0.18 0.18 0.19 0.19 0.18 0.18 0.18 0.16 0.13 0.13 0.13 0.13 0.13 0.15 0.16 0.17 0.20 0.21 0.23 0.24 0.25 0.26 0.25 0.24 0.23 0.22 0.23 0.21 0.19 0.17 0.18 0.20 0.25
0.15 0.15 0.14 0.13 0.13 0.12 0.11 0.10 0.12 0.15 0.17 0.18 0.19 0.19 0.19 0.18 0.18 0.18 0.17 0.14 0.12 0.13 0.12 0.12 0.13 0.15 0.17 0.18 0.20 0.22 0.23 0.24 0.24 0.23 0.22 0.21 0.20 0.20 0.19 0.18 0.18 0.18 0.22
Wind_Speed
25 28 31 33 35 37 37 37 37 38 39 41 42 43 44 44 44 45 46 46 46 46 46 46 46 46 46 45 45 46 46 46 47 46 46 45 45 45 45 46 46 46 46
27 30 32 33 34 35 36 37 39 41 43 44 46 47 48 48 48 48 48 49 49 50 50 49 49 48 48 48 48 48 48 48 48 50 48 47 47 48 48 48 49 49 48
29 30 31 33 36 39 41 43 45 47 48 50 51 52 52 52 52 52 53 52 52 53 52 52 52 51 50 49 49 50 50 49 49 50 50 49 49 49 49 49 49 50 50
30 32 35 37 39 41 43 45 47 48 50 50 51 52 53 53 54 54 53 53 54 54 54 54 54 53 51 50 50 50 51 51 51 51 51 51 50 48 50 50 50 50 50
33 35 37 39 41 43 45 47 48 50 50 51 52 52 53 52 52 52 53 55 55 56 56 53 53 53 55 52 51 50 50 51 51 51 51 51 50 49 48 48 49 49 50
34 36 38 41 43 45 48 49 51 52 52 53 52 52 52 51 51 52 51 52 53 54 56 56 56 54 55 55 53 51 49 49 49 49 49 50 49 49 48 48 48 47 46
35 38 41 43 46 48 50 52 52 53 53 52 52 52 51 50 50 49 50 51 51 50 50 51 53 55 55 53 52 50 49 49 49 48 49 48 47 46 46 46 45 46 46
37 40 43 46 48 50 52 53 53 53 52 51 50 49 49 48 49 49 49 48 48 47 47 48 49 50 52 52 52 50 49 47 46 45 46 45 45 45 44 44 43 44 45
39 43 45 48 50 52 53 53 53 51 51 50 49 49 49 49 49 48 48 48 47 48 47 48 48 49 50 51 49 49 47 46 44 43 42 42 42 42 42 41 41 41 41
41 44 47 49 51 53 53 52 51 51 49 49 50 49 49 50 49 48 48 49 49 49 48 48 48 48 49 49 49 48 45 43 42 41 40 39 39 38 39 39 39 38 38
43 46 48 50 52 52 52 51 50 50 49 49 50 51 50 49 50 49 48 47 47 46 47 46 46 46 46 45 43 42 41 39 39 38 37 36 37 36 36 36 36 36 36
44 47 49 51 51 51 52 50 49 48 50 51 52 51 51 50 48 48 47 45 45 46 45 44 44 43 41 38 38 37 36 35 35 34 33 32 32 32 32 33 33 33 34
46 48 50 51 51 51 50 48 47 49 50 52 52 52 50 48 46 45 43 43 43 42 41 41 41 38 33 31 31 31 31 30 30 30 29 28 28 28 28 28 29 29 30
47 48 50 51 51 50 47 46 48 49 50 52 52 51 49 46 43 41 40 38 37 34 33 32 28 22 21 22 24 24 25 25 26 25 24 24 24 23 24 24 24 25 26
47 48 49 50 50 49 46 46 47 48 50 52 52 50 48 45 42 40 37 34 30 27 28 23 15 15 19 20 22 22 22 22 22 21 21 20 20 20 20 20 21 22 22
47 48 49 49 49 48 46 46 47 48 49 50 51 48 46 45 42 37 32 28 25 25 18 11 10 11 14 16 17 19 20 19 18 18 17 17 17 17 18 18 18 19 21
46 48 48 48 48 47 46 47 48 49 48 49 50 47 46 43 39 33 26 21 17 16 10 9 10 9 10 11 13 15 16 16 15 14 14 14 14 15 15 15 16 16 17
45 47 47 48 47 46 45 46 47 49 49 49 48 47 45 42 37 29 22 15 12 11 10 8 6 0 6 6 10 12 13 12 12 12 12 13 12 12 13 14 15 15 16
45 45 46 46 45 45 44 44 46 48 47 47 48 46 44 42 35 26 19 12 10 8 7 6 5 2 3 5 8 9 10 11 11 11 11 12 12 12 12 12 13 14 14
44 45 45 45 45 44 43 43 45 46 46 46 46 45 44 41 34 26 19 13 11 9 8 6 4 2 2 5 7 9 9 10 9 9 10 11 11 12 12 12 12 12 12
43 44 44 44 44 43 42 42 43 45 45 45 44 44 43 40 34 28 21 15 13 12 11 9 7 6 5 5 5 7 9 9 8 8 8 8 9 10 11 12 12 12 12
43 43 43 44 44 43 42 41 42 43 44 45 44 43 42 39 35 30 23 18 15 16 15 14 12 11 9 9 8 8 9 10 10 10 9 8 8 9 10 11 11 11 11
41 42 43 43 43 42 41 40 40 41 42 43 43 43 40 38 36 32 27 20 16 16 18 19 17 16 15 14 13 13 11 12 11 11 11 10 9 10 10 11 11 11 10
40 41 42 43 42 42 41 40 39 40 41 42 42 42 40 38 36 33 29 24 19 16 17 20 23 22 20 18 18 17 16 15 14 14 13 13 11 10 10 10 10 11 10
40 41 42 42 42 42 41 39 39 39 39 40 41 41 40 38 35 33 31 27 23 19 17 19 22 25 26 25 23 22 21 20 19 17 16 15 14 13 12 11 11 11 10
39 40 41 41 41 42 41 40 38 38 38 39 39 39 40 39 37 34 31 29 26 22 19 19 21 25 27 29 29 26 24 24 22 21 19 18 16 15 13 12 11 11 11
Wind_Direction
306 305 306 306 305 305 305 305 302 300 298 297 296 295 293 292 290 288 286 283 281 280 278 277 275 274 272 269 268 267 266 265 266 264 263 264 264 263 262 262 263 262 262
311 310 309 309 310 310 310 309 306 304 301 299 297 296 294 292 290 289 287 285 283 280 278 276 274 273 271 270 268 266 265 265 265 266 265 263 262 263 263 264 264 263 263
315 314 314 313 312 310 309 308 306 303 301 299 297 295 293 292 290 288 287 285 283 281 279 276 274 272 271 270 268 266 265 264 264 265 265 264 263 263 264 263 263 263 263
317 316 315 314 313 312 311 310 308 306 304 302 300 298 296 293 291 288 286 284 283 281 279 279 273 271 269 269 269 267 265 264 264 264 265 265 264 263 264 264 264 262 262
319 318 317 317 316 315 314 312 310 308 306 304 302 299 297 295 293 291 289 285 283 281 280 277 274 273 268 267 268 267 265 265 264 263 263 263 263 263 262 263 263 264 263
321 320 319 319 318 316 315 313 312 310 308 305 303 301 299 297 295 293 290 288 286 283 279 276 272 272 270 268 265 264 264 264 264 263 262 262 262 262 262 262 262 263 263
322 322 321 320 319 318 317 315 313 312 310 307 306 303 301 299 297 295 293 291 288 285 283 279 275 270 268 268 264 262 262 263 263 262 261 261 261 261 262 262 261 261 261
324 324 323 322 321 320 319 318 316 314 312 310 308 306 304 302 300 298 295 292 289 287 284 282 279 274 268 265 262 261 260 262 261 260 260 260 260 260 259 260 260 262 262
326 326 325 324 323 322 321 320 318 316 314 312 310 309 306 304 302 300 297 294 290 288 285 284 282 277 271 265 259 259 259 259 258 258 259 260 259 259 258 259 259 260 261
327 327 327 326 326 324 323 322 321 319 317 315 313 311 309 306 304 302 299 295 292 290 286 284 282 280 272 266 257 255 254 255 255 255 258 259 258 256 256 256 257 258 259
328 328 328 328 327 326 325 324 322 321 319 318 316 313 311 308 305 303 300 296 293 291 289 286 284 281 272 265 251 249 249 252 252 252 255 257 256 256 254 254 254 255 257
330 330 330 330 329 329 327 326 325 324 323 322 319 317 314 311 307 305 301 298 295 293 290 289 286 281 270 256 245 246 246 249 248 248 252 254 253 252 252 252 254 256 257
331 332 332 332 331 331 330 329 328 328 327 326 324 321 319 316 312 309 306 302 298 294 291 291 288 278 261 242 240 241 241 244 242 244 248 251 249 251 252 252 253 256 260
333 333 333 333 333 333 332 331 331 331 330 330 328 325 323 321 317 314 311 307 304 300 297 297 290 269 233 230 234 236 235 236 237 241 245 246 247 247 248 250 253 256 262
334 334 335 335 335 334 334 333 333 333 333 333 332 329 327 325 321 318 315 313 309 304 302 295 277 255 238 238 235 233 233 229 233 238 239 240 242 244 246 250 253 259 262
335 336 336 336 336 336 335 335 336 335 335 336 335 333 331 328 326 321 318 317 316 315 305 292 282 255 231 235 233 225 224 225 229 232 234 236 239 242 247 251 256 261 265
336 337 337 337 338 337 337 337 338 339 339 339 339 338 336 334 331 327 322 320 327 337 330 325 271 247 240 231 219 217 211 213 218 222 227 232 237 242 248 254 259 264 270
337 338 339 339 339 339 338 339 340 341 341 343 344 343 342 340 336 331 325 317 325 341 354 1 21 225 207 183 184 185 193 204 214 222 228 232 238 245 250 257 262 267 272
338 339 340 340 340 340 340 341 342 343 344 344 345 347 346 345 342 337 329 309 310 320 334 348 12 78 149 188 195 201 211 220 225 230 234 237 244 249 256 262 267 271 275
340 340 341 341 341 341 341 342 343 345 346 346 347 348 349 349 347 341 331 308 289 292 296 303 305 303 256 222 208 215 219 222 227 230 236 242 248 253 257 263 269 272 277
340 341 342 342 343 342 342 343 344 346 347 348 348 349 350 350 349 344 334 316 285 273 274 274 268 263 259 240 227 221 219 220 223 230 239 244 251 256 261 263 267 273 277
341 342 343 343 343 343 343 343 344 346 348 349 350 350 351 352 351 347 337 322 297 269 261 262 256 253 251 247 243 240 235 235 233 238 245 253 260 266 268 267 269 271 277
342 343 343 344 344 344 343 343 344 346 348 349 351 351 351 352 352 350 344 330 310 283 260 255 252 250 249 247 245 243 247 237 240 244 244 251 262 272 275 269 269 270 273
342 343 344 344 345 345 344 343 344 345 347 349 350 351 351 351 351 351 348 341 322 301 274 257 251 249 249 248 245 245 243 245 245 247 248 250 258 269 271 274 269 270 270
343 344 345 345 345 345 344 344 343 344 345 347 349 351 352 351 349 349 349 345 336 316 292 269 257 250 247 247 247 247 247 243 245 248 249 249 252 258 264 270 269 266 266
343 344 344 345 345 346 345 344 344 344 345 346 348 350 351 352 351 348 347 347 342 333 312 287 269 257 250 246 245 245 244 243 244 245 247 247 249 251 256 262 263 262 261